| time (UTC) | temp C | wind direction | speed KPH | gust KPH | rain 1hr cm | rain 24hr cm | rain mn cm | humidity % | barometer mb |
| 20260509093538 | 12 | 0 | 0.0 | 0.0 | 0.00 | 0.00 | 0.00 | 70 | 1011.1 |
| 20260509093049 | 12 | 0 | 0.0 | 3.2 | 0.00 | 0.00 | 0.00 | 71 | 1011.1 |
| 20260509092538 | 12 | 0 | 0.0 | 6.4 | 0.00 | 0.00 | 0.00 | 71 | 1011.2 |
| 20260509092038 | 12 | 67 | 1.6 | 6.4 | 0.00 | 0.00 | 0.00 | 71 | 1011.1 |
| 20260509091551 | 12 | 0 | 0.0 | 4.8 | 0.00 | 0.00 | 0.00 | 71 | 1011.0 |
| 20260509091041 | 12 | 127 | 0.0 | 4.8 | 0.00 | 0.00 | 0.00 | 70 | 1011.1 |
| 20260509090538 | 12 | 0 | 0.0 | 0.0 | 0.00 | 0.00 | 0.00 | 71 | 1011.1 |
| 20260509090050 | 12 | 0 | 0.0 | 0.0 | 0.00 | 0.00 | 0.00 | 68 | 1011.0 |
| 20260509085537 | 12 | 0 | 0.0 | 0.0 | 0.00 | 0.00 | 0.00 | 68 | 1011.1 |
| 20260509085038 | 12 | 0 | 0.0 | 0.0 | 0.00 | 0.00 | 0.00 | 68 | 1011.1 |
| 20260509084550 | 12 | 0 | 0.0 | 0.0 | 0.00 | 0.00 | 0.00 | 68 | 1011.1 |
| 20260509084038 | 12 | 0 | 0.0 | 0.0 | 0.00 | 0.00 | 0.00 | 67 | 1011.1 |
| 20260509083539 | 12 | 0 | 0.0 | 1.6 | 0.00 | 0.00 | 0.00 | 67 | 1011.1 |
| 20260509083048 | 13 | 0 | 0.0 | 4.8 | 0.00 | 0.00 | 0.00 | 66 | 1011.1 |
| 20260509082535 | 13 | 0 | 0.0 | 4.8 | 0.00 | 0.00 | 0.00 | 66 | 1011.2 |
| 20260509082038 | 13 | 208 | 0.0 | 1.6 | 0.00 | 0.00 | 0.00 | 65 | 1011.3 |
| 20260509081549 | 13 | 0 | 0.0 | 0.0 | 0.00 | 0.00 | 0.00 | 65 | 1011.4 |
| 20260509081036 | 13 | 0 | 0.0 | 1.6 | 0.00 | 0.00 | 0.00 | 65 | 1011.5 |
| 20260509080538 | 13 | 0 | 0.0 | 4.8 | 0.00 | 0.00 | 0.00 | 65 | 1011.5 |
| 20260509080047 | 13 | 0 | 0.0 | 4.8 | 0.00 | 0.00 | 0.00 | 65 | 1011.6 |
| 20260509075538 | 13 | 0 | 0.0 | 3.2 | 0.00 | 0.00 | 0.00 | 64 | 1011.6 |
| 20260509075038 | 13 | 0 | 0.0 | 4.8 | 0.00 | 0.00 | 0.00 | 65 | 1011.6 |
| 20260509074558 | 13 | 0 | 0.0 | 6.4 | 0.00 | 0.00 | 0.00 | 64 | 1011.7 |
| 20260509074037 | 13 | 0 | 0.0 | 6.4 | 0.00 | 0.00 | 0.00 | 63 | 1011.7 |
| 20260509073538 | 13 | 0 | 0.0 | 8.0 | 0.00 | 0.00 | 0.00 | 63 | 1011.7 |
| 20260509073047 | 13 | 0 | 0.0 | 8.0 | 0.00 | 0.00 | 0.00 | 63 | 1011.8 |
| 20260509072538 | 13 | 218 | 1.6 | 6.4 | 0.00 | 0.00 | 0.00 | 63 | 1011.8 |
| 20260509072039 | 13 | 0 | 0.0 | 8.0 | 0.00 | 0.00 | 0.00 | 64 | 1011.8 |
| 20260509071555 | 13 | 176 | 1.6 | 9.7 | 0.00 | 0.00 | 0.00 | 64 | 1011.8 |
| 20260509071038 | 12 | 202 | 1.6 | 9.7 | 0.00 | 0.00 | 0.00 | 64 | 1011.8 |
| 20260509070538 | 12 | 142 | 0.0 | 8.0 | 0.00 | 0.00 | 0.00 | 65 | 1011.9 |
| 20260509070053 | 12 | 145 | 1.6 | 9.7 | 0.00 | 0.00 | 0.00 | 66 | 1011.9 |
| 20260509065538 | 12 | 0 | 0.0 | 9.7 | 0.00 | 0.00 | 0.00 | 68 | 1011.9 |
| 20260509065035 | 12 | 0 | 0.0 | 0.0 | 0.00 | 0.00 | 0.00 | 70 | 1012.0 |
| 20260509064559 | 12 | 0 | 0.0 | 1.6 | 0.00 | 0.00 | 0.00 | 72 | 1012.0 |
| 20260509064038 | 12 | 0 | 0.0 | 6.4 | 0.00 | 0.00 | 0.00 | 69 | 1012.1 |
| 20260509063538 | 12 | 0 | 0.0 | 8.0 | 0.00 | 0.00 | 0.00 | 70 | 1012.0 |
| 20260509063049 | 12 | 0 | 0.0 | 8.0 | 0.00 | 0.00 | 0.00 | 70 | 1012.1 |
| 20260509062542 | 12 | 0 | 0.0 | 0.0 | 0.00 | 0.00 | 0.00 | 70 | 1012.1 |
| 20260509062042 | 12 | 0 | 0.0 | 0.0 | 0.00 | 0.00 | 0.00 | 72 | 1012.1 |
| 20260509061553 | 12 | 0 | 0.0 | 0.0 | 0.00 | 0.00 | 0.00 | 71 | 1012.1 |
| 20260509061037 | 12 | 0 | 0.0 | 0.0 | 0.00 | 0.00 | 0.00 | 70 | 1012.1 |
| 20260509060538 | 12 | 0 | 0.0 | 0.0 | 0.00 | 0.00 | 0.00 | 71 | 1012.1 |
| 20260509060049 | 12 | 0 | 0.0 | 0.0 | 0.00 | 0.00 | 0.00 | 70 | 1012.1 |
| 20260509055538 | 12 | 0 | 0.0 | 0.0 | 0.00 | 0.00 | 0.00 | 69 | 1012.1 |
| 20260509055038 | 12 | 0 | 0.0 | 0.0 | 0.00 | 0.00 | 0.00 | 69 | 1012.0 |
| 20260509054546 | 12 | 0 | 0.0 | 0.0 | 0.00 | 0.00 | 0.00 | 69 | 1012.0 |
| 20260509054038 | 12 | 0 | 0.0 | 0.0 | 0.00 | 0.00 | 0.00 | 68 | 1012.0 |
| 20260509053536 | 12 | 0 | 0.0 | 0.0 | 0.00 | 0.00 | 0.00 | 67 | 1012.0 |
| 20260509053051 | 12 | 0 | 0.0 | 0.0 | 0.00 | 0.00 | 0.00 | 67 | 1011.9 |
| 20260509052538 | 12 | 0 | 0.0 | 0.0 | 0.00 | 0.00 | 0.00 | 66 | 1012.0 |
| 20260509052037 | 12 | 0 | 0.0 | 0.0 | 0.00 | 0.00 | 0.00 | 68 | 1012.0 |
| 20260509051550 | 12 | 0 | 0.0 | 0.0 | 0.00 | 0.00 | 0.00 | 66 | 1012.0 |
| 20260509051038 | 12 | 0 | 0.0 | 0.0 | 0.00 | 0.00 | 0.00 | 67 | 1012.0 |
| 20260509050538 | 12 | 0 | 0.0 | 0.0 | 0.00 | 0.00 | 0.00 | 64 | 1012.0 |
| 20260509050048 | 12 | 0 | 0.0 | 0.0 | 0.00 | 0.00 | 0.00 | 63 | 1012.0 |
| 20260509045537 | 12 | 0 | 0.0 | 0.0 | 0.00 | 0.00 | 0.00 | 65 | 1011.9 |
| 20260509045037 | 13 | 0 | 0.0 | 0.0 | 0.00 | 0.00 | 0.00 | 65 | 1011.9 |
| 20260509044547 | 13 | 0 | 0.0 | 0.0 | 0.00 | 0.00 | 0.00 | 65 | 1011.9 |
| 20260509044038 | 13 | 0 | 0.0 | 0.0 | 0.00 | 0.00 | 0.00 | 67 | 1011.9 |
| 20260509043538 | 13 | 0 | 0.0 | 0.0 | 0.00 | 0.00 | 0.00 | 65 | 1012.0 |
| 20260509043055 | 13 | 0 | 0.0 | 0.0 | 0.00 | 0.00 | 0.00 | 65 | 1011.9 |
| 20260509042538 | 13 | 0 | 0.0 | 1.6 | 0.00 | 0.00 | 0.00 | 63 | 1011.9 |
| 20260509042035 | 13 | 0 | 0.0 | 3.2 | 0.00 | 0.00 | 0.00 | 63 | 1011.9 |
| 20260509041549 | 13 | 0 | 0.0 | 3.2 | 0.00 | 0.00 | 0.00 | 63 | 1012.0 |
| 20260509041034 | 13 | 0 | 0.0 | 1.6 | 0.00 | 0.00 | 0.00 | 63 | 1012.0 |
| 20260509040537 | 13 | 0 | 0.0 | 1.6 | 0.00 | 0.00 | 0.00 | 60 | 1012.0 |
| 20260509040051 | 13 | 0 | 0.0 | 0.0 | 0.00 | 0.00 | 0.00 | 62 | 1012.1 |
| 20260509035539 | 13 | 0 | 0.0 | 0.0 | 0.00 | 0.00 | 0.00 | 59 | 1012.2 |
| 20260509035035 | 13 | 0 | 0.0 | 0.0 | 0.00 | 0.00 | 0.00 | 62 | 1012.2 |
| 20260509034552 | 13 | 0 | 0.0 | 0.0 | 0.00 | 0.00 | 0.00 | 61 | 1012.3 |
| 20260509034034 | 13 | 0 | 0.0 | 0.0 | 0.00 | 0.00 | 0.00 | 64 | 1012.3 |
| 20260509033534 | 13 | 0 | 0.0 | 0.0 | 0.00 | 0.00 | 0.00 | 65 | 1012.3 |
| 20260509033052 | 14 | 0 | 0.0 | 0.0 | 0.00 | 0.00 | 0.00 | 61 | 1012.4 |
| 20260509032535 | 14 | 0 | 0.0 | 0.0 | 0.00 | 0.00 | 0.00 | 59 | 1012.3 |
| 20260509032034 | 14 | 0 | 0.0 | 0.0 | 0.00 | 0.00 | 0.00 | 60 | 1012.4 |
| 20260509031558 | 14 | 0 | 0.0 | 0.0 | 0.00 | 0.00 | 0.00 | 58 | 1012.3 |
| 20260509031034 | 15 | 0 | 0.0 | 0.0 | 0.00 | 0.00 | 0.00 | 58 | 1012.4 |
| 20260509030534 | 15 | 0 | 0.0 | 0.0 | 0.00 | 0.00 | 0.00 | 58 | 1012.4 |
| 20260509030051 | 15 | 0 | 0.0 | 0.0 | 0.00 | 0.00 | 0.00 | 57 | 1012.3 |
| 20260509025535 | 15 | 0 | 0.0 | 0.0 | 0.00 | 0.00 | 0.00 | 56 | 1012.2 |
| 20260509025035 | 15 | 0 | 0.0 | 3.2 | 0.00 | 0.00 | 0.00 | 54 | 1012.4 |
| 20260509024548 | 15 | 0 | 0.0 | 3.2 | 0.00 | 0.00 | 0.00 | 52 | 1012.4 |
| 20260509024035 | 15 | 0 | 0.0 | 1.6 | 0.00 | 0.00 | 0.00 | 50 | 1012.4 |
| 20260509023534 | 15 | 0 | 0.0 | 1.6 | 0.00 | 0.00 | 0.00 | 53 | 1012.4 |
| 20260509023046 | 15 | 0 | 0.0 | 4.8 | 0.00 | 0.00 | 0.00 | 53 | 1012.3 |
| 20260509022534 | 15 | 0 | 0.0 | 6.4 | 0.00 | 0.00 | 0.00 | 50 | 1012.3 |
| 20260509022035 | 15 | 0 | 0.0 | 6.4 | 0.00 | 0.00 | 0.00 | 50 | 1012.3 |
| 20260509021548 | 15 | 0 | 0.0 | 0.0 | 0.00 | 0.00 | 0.00 | 50 | 1012.2 |
| 20260509021034 | 15 | 0 | 0.0 | 1.6 | 0.00 | 0.00 | 0.00 | 50 | 1012.2 |
| 20260509020534 | 15 | 0 | 0.0 | 1.6 | 0.00 | 0.00 | 0.00 | 53 | 1012.1 |
| 20260509020044 | 16 | 0 | 0.0 | 1.6 | 0.00 | 0.00 | 0.00 | 55 | 1012.1 |
| 20260509015535 | 16 | 0 | 0.0 | 1.6 | 0.00 | 0.00 | 0.00 | 55 | 1012.1 |
| 20260509015040 | 16 | 0 | 0.0 | 0.0 | 0.00 | 0.00 | 0.00 | 53 | 1012.1 |
| 20260509014543 | 16 | 0 | 0.0 | 0.0 | 0.00 | 0.00 | 0.00 | 56 | 1012.0 |
| 20260509014035 | 16 | 0 | 0.0 | 0.0 | 0.00 | 0.00 | 0.00 | 51 | 1012.0 |
| 20260509013535 | 16 | 0 | 0.0 | 0.0 | 0.00 | 0.00 | 0.00 | 50 | 1012.0 |
| 20260509013057 | 16 | 0 | 0.0 | 0.0 | 0.00 | 0.00 | 0.00 | 52 | 1012.0 |
| 20260509012535 | 17 | 0 | 0.0 | 0.0 | 0.00 | 0.00 | 0.00 | 49 | 1012.0 |
| 20260509012035 | 17 | 0 | 0.0 | 0.0 | 0.00 | 0.00 | 0.00 | 48 | 1011.9 |
| 20260509011551 | 17 | 0 | 0.0 | 0.0 | 0.00 | 0.00 | 0.00 | 47 | 1011.9 |
| 20260509011036 | 17 | 0 | 0.0 | 3.2 | 0.00 | 0.00 | 0.00 | 46 | 1011.8 |
| 20260509010534 | 18 | 0 | 0.0 | 3.2 | 0.00 | 0.00 | 0.00 | 45 | 1011.7 |
| 20260509010047 | 18 | 0 | 0.0 | 6.4 | 0.00 | 0.00 | 0.00 | 42 | 1011.7 |
| 20260509005538 | 18 | 0 | 0.0 | 6.4 | 0.00 | 0.00 | 0.00 | 40 | 1011.7 |
| 20260509005035 | 18 | 190 | 0.0 | 6.4 | 0.00 | 0.00 | 0.00 | 40 | 1011.6 |
| 20260509004557 | 18 | 0 | 0.0 | 6.4 | 0.00 | 0.00 | 0.00 | 40 | 1011.7 |
| 20260509004035 | 18 | 0 | 0.0 | 4.8 | 0.00 | 0.00 | 0.00 | 39 | 1011.7 |
| 20260509003535 | 18 | 0 | 0.0 | 6.4 | 0.00 | 0.00 | 0.00 | 38 | 1011.7 |
| 20260509003051 | 19 | 175 | 0.0 | 8.0 | 0.00 | 0.00 | 0.00 | 38 | 1011.6 |
| 20260509002539 | 19 | 0 | 1.6 | 8.0 | 0.00 | 0.00 | 0.00 | 38 | 1011.5 |
| 20260509002035 | 19 | 0 | 0.0 | 4.8 | 0.00 | 0.00 | 0.00 | 37 | 1011.6 |
| 20260509001553 | 19 | 0 | 0.0 | 9.7 | 0.00 | 0.00 | 0.00 | 37 | 1011.5 |
| 20260509001036 | 20 | 0 | 0.0 | 9.7 | 0.00 | 0.00 | 0.00 | 37 | 1011.4 |
| 20260509000536 | 20 | 247 | 1.6 | 9.7 | 0.00 | 0.00 | 0.00 | 37 | 1011.4 |
| 20260509000049 | 20 | 239 | 0.0 | 11.3 | 0.00 | 0.00 | 0.00 | 36 | 1011.3 |
| 20260508235535 | 20 | 171 | 0.0 | 11.3 | 0.00 | 0.00 | 0.00 | 36 | 1011.2 |
| 20260508235037 | 20 | 0 | 1.6 | 17.7 | 0.00 | 0.00 | 0.00 | 35 | 1011.3 |
| 20260508234548 | 20 | 222 | 3.2 | 17.7 | 0.00 | 0.00 | 0.00 | 36 | 1011.2 |
| 20260508234034 | 20 | 180 | 3.2 | 17.7 | 0.00 | 0.00 | 0.00 | 35 | 1011.2 |
| 20260508233538 | 20 | 0 | 3.2 | 9.7 | 0.00 | 0.00 | 0.00 | 35 | 1011.1 |
| 20260508233047 | 21 | 195 | 1.6 | 9.7 | 0.00 | 0.00 | 0.00 | 35 | 1011.1 |
| 20260508232535 | 21 | 231 | 1.6 | 12.9 | 0.00 | 0.00 | 0.00 | 34 | 1011.1 |
| 20260508232035 | 21 | 0 | 3.2 | 12.9 | 0.00 | 0.00 | 0.00 | 34 | 1011.0 |
| 20260508231546 | 21 | 248 | 1.6 | 14.5 | 0.00 | 0.00 | 0.00 | 34 | 1011.0 |
| 20260508231037 | 21 | 0 | 4.8 | 14.5 | 0.00 | 0.00 | 0.00 | 33 | 1010.9 |
| 20260508230535 | 21 | 222 | 6.4 | 14.5 | 0.00 | 0.00 | 0.00 | 33 | 1010.9 |
| 20260508230051 | 21 | 205 | 3.2 | 14.5 | 0.00 | 0.00 | 0.00 | 33 | 1010.8 |
| 20260508225534 | 21 | 246 | 4.8 | 14.5 | 0.00 | 0.00 | 0.00 | 33 | 1010.8 |
| 20260508225034 | 21 | 247 | 3.2 | 16.1 | 0.00 | 0.00 | 0.00 | 33 | 1010.9 |
| 20260508224557 | 21 | 246 | 6.4 | 16.1 | 0.00 | 0.00 | 0.00 | 33 | 1010.8 |
| 20260508224035 | 21 | 148 | 4.8 | 14.5 | 0.00 | 0.00 | 0.00 | 32 | 1010.8 |
| 20260508223535 | 21 | 212 | 4.8 | 16.1 | 0.00 | 0.00 | 0.00 | 33 | 1010.8 |
| 20260508223053 | 21 | 0 | 3.2 | 16.1 | 0.00 | 0.00 | 0.00 | 33 | 1010.8 |
| 20260508222537 | 21 | 199 | 6.4 | 19.3 | 0.00 | 0.00 | 0.00 | 33 | 1010.8 |
| 20260508222036 | 21 | 176 | 3.2 | 20.9 | 0.00 | 0.00 | 0.00 | 32 | 1010.8 |
| 20260508221550 | 21 | 103 | 1.6 | 20.9 | 0.00 | 0.00 | 0.00 | 33 | 1010.9 |
| 20260508221037 | 22 | 172 | 4.8 | 16.1 | 0.00 | 0.00 | 0.00 | 32 | 1010.9 |
| 20260508220534 | 21 | 254 | 3.2 | 20.9 | 0.00 | 0.00 | 0.00 | 32 | 1010.9 |
| 20260508220049 | 22 | 243 | 4.8 | 20.9 | 0.00 | 0.00 | 0.00 | 32 | 1011.0 |
| 20260508215534 | 22 | 261 | 8.0 | 19.3 | 0.00 | 0.00 | 0.00 | 32 | 1010.9 |
| 20260508215037 | 22 | 0 | 3.2 | 22.5 | 0.00 | 0.00 | 0.00 | 32 | 1010.9 |
| 20260508214600 | 22 | 269 | 4.8 | 22.5 | 0.00 | 0.00 | 0.00 | 32 | 1010.9 |
| 20260508214036 | 22 | 86 | 3.2 | 14.5 | 0.00 | 0.00 | 0.00 | 31 | 1010.9 |
| 20260508213533 | 22 | 0 | 1.6 | 19.3 | 0.00 | 0.00 | 0.00 | 32 | 1010.9 |
| 20260508213048 | 22 | 142 | 4.8 | 19.3 | 0.00 | 0.00 | 0.00 | 31 | 1011.0 |
| 20260508212536 | 22 | 136 | 4.8 | 19.3 | 0.00 | 0.00 | 0.00 | 30 | 1011.2 |
| 20260508212037 | 22 | 225 | 6.4 | 14.5 | 0.00 | 0.00 | 0.00 | 30 | 1011.2 |
| 20260508211542 | 22 | 167 | 1.6 | 12.9 | 0.00 | 0.00 | 0.00 | 31 | 1011.1 |
| 20260508211036 | 22 | 258 | 1.6 | 14.5 | 0.00 | 0.00 | 0.00 | 31 | 1011.2 |
| 20260508210534 | 22 | 0 | 6.4 | 14.5 | 0.00 | 0.00 | 0.00 | 29 | 1011.1 |
| 20260508210054 | 22 | 0 | 1.6 | 12.9 | 0.00 | 0.00 | 0.00 | 30 | 1011.1 |
| 20260508205537 | 22 | 221 | 3.2 | 12.9 | 0.00 | 0.00 | 0.00 | 31 | 1011.2 |
| 20260508205038 | 22 | 238 | 3.2 | 14.5 | 0.00 | 0.00 | 0.00 | 30 | 1011.2 |
| 20260508204549 | 22 | 214 | 4.8 | 14.5 | 0.00 | 0.00 | 0.00 | 30 | 1011.2 |
| 20260508204034 | 22 | 213 | 6.4 | 14.5 | 0.00 | 0.00 | 0.00 | 30 | 1011.3 |
| 20260508203537 | 22 | 245 | 3.2 | 14.5 | 0.00 | 0.00 | 0.00 | 30 | 1011.3 |
| 20260508203046 | 22 | 206 | 4.8 | 14.5 | 0.00 | 0.00 | 0.00 | 29 | 1011.4 |
| 20260508202537 | 22 | 257 | 3.2 | 14.5 | 0.00 | 0.00 | 0.00 | 31 | 1011.4 |
| 20260508202034 | 22 | 115 | 4.8 | 12.9 | 0.00 | 0.00 | 0.00 | 33 | 1011.4 |
| 20260508201546 | 22 | 120 | 3.2 | 9.7 | 0.00 | 0.00 | 0.00 | 34 | 1011.4 |
| 20260508201038 | 22 | 234 | 1.6 | 14.5 | 0.00 | 0.00 | 0.00 | 31 | 1011.6 |
| 20260508200533 | 22 | 116 | 4.8 | 14.5 | 0.00 | 0.00 | 0.00 | 31 | 1011.7 |
| 20260508200046 | 22 | 254 | 3.2 | 11.3 | 0.00 | 0.00 | 0.00 | 30 | 1011.8 |
| 20260508195533 | 23 | 277 | 3.2 | 11.3 | 0.00 | 0.00 | 0.00 | 30 | 1011.8 |
| 20260508195034 | 23 | 275 | 3.2 | 11.3 | 0.00 | 0.00 | 0.00 | 33 | 1011.9 |
| 20260508194554 | 23 | 117 | 3.2 | 11.3 | 0.00 | 0.00 | 0.00 | 33 | 1011.9 |
| 20260508194038 | 22 | 0 | 1.6 | 12.9 | 0.00 | 0.00 | 0.00 | 33 | 1011.9 |
| 20260508193533 | 22 | 204 | 1.6 | 16.1 | 0.00 | 0.00 | 0.00 | 31 | 1012.0 |
| 20260508193101 | 22 | 278 | 4.8 | 16.1 | 0.00 | 0.00 | 0.00 | 32 | 1012.0 |
| 20260508192535 | 22 | 149 | 6.4 | 14.5 | 0.00 | 0.00 | 0.00 | 31 | 1012.2 |
| 20260508192040 | 22 | 0 | 4.8 | 12.9 | 0.00 | 0.00 | 0.00 | 32 | 1012.2 |
| 20260508191557 | 22 | 264 | 4.8 | 14.5 | 0.00 | 0.00 | 0.00 | 30 | 1012.3 |
| 20260508191035 | 22 | 206 | 3.2 | 16.1 | 0.00 | 0.00 | 0.00 | 31 | 1012.4 |
| 20260508190535 | 22 | 242 | 4.8 | 16.1 | 0.00 | 0.00 | 0.00 | 31 | 1012.4 |
| 20260508190104 | 22 | 203 | 6.4 | 12.9 | 0.00 | 0.00 | 0.00 | 32 | 1012.5 |
| 20260508185539 | 22 | 186 | 3.2 | 11.3 | 0.00 | 0.03 | 0.00 | 32 | 1012.6 |
| 20260508185034 | 22 | 202 | 3.2 | 14.5 | 0.00 | 0.03 | 0.00 | 33 | 1012.7 |
| 20260508184547 | 22 | 219 | 3.2 | 14.5 | 0.00 | 0.03 | 0.00 | 32 | 1012.8 |
| 20260508184034 | 22 | 205 | 1.6 | 11.3 | 0.00 | 0.03 | 0.00 | 33 | 1012.9 |
| 20260508183534 | 22 | 155 | 0.0 | 12.9 | 0.00 | 0.03 | 0.00 | 34 | 1012.9 |
| 20260508183101 | 22 | 0 | 4.8 | 12.9 | 0.00 | 0.03 | 0.00 | 33 | 1013.0 |
| 20260508182535 | 22 | 242 | 3.2 | 11.3 | 0.00 | 0.03 | 0.00 | 34 | 1012.9 |
| 20260508182036 | 22 | 0 | 0.0 | 6.4 | 0.00 | 0.03 | 0.00 | 33 | 1012.9 |
| 20260508181552 | 21 | 290 | 1.6 | 17.7 | 0.00 | 0.03 | 0.00 | 35 | 1013.0 |
| 20260508181040 | 21 | 263 | 4.8 | 17.7 | 0.00 | 0.03 | 0.00 | 33 | 1013.2 |
| 20260508180535 | 21 | 0 | 1.6 | 11.3 | 0.00 | 0.03 | 0.00 | 33 | 1013.2 |
| 20260508180100 | 21 | 187 | 3.2 | 12.9 | 0.00 | 0.03 | 0.00 | 35 | 1013.3 |
| 20260508175535 | 21 | 232 | 3.2 | 12.9 | 0.00 | 0.03 | 0.00 | 36 | 1013.3 |
| 20260508175036 | 20 | 176 | 4.8 | 12.9 | 0.00 | 0.03 | 0.00 | 34 | 1013.4 |
| 20260508174601 | 21 | 211 | 3.2 | 22.5 | 0.00 | 0.03 | 0.00 | 34 | 1013.3 |
| 20260508174034 | 21 | 248 | 4.8 | 22.5 | 0.00 | 0.03 | 0.00 | 34 | 1013.5 |
| 20260508173535 | 21 | 236 | 4.8 | 22.5 | 0.00 | 0.03 | 0.00 | 33 | 1013.5 |
| 20260508173050 | 21 | 178 | 1.6 | 11.3 | 0.00 | 0.03 | 0.00 | 36 | 1013.5 |
| 20260508172537 | 21 | 0 | 0.0 | 16.1 | 0.00 | 0.03 | 0.00 | 37 | 1013.5 |
| 20260508172039 | 21 | 0 | 3.2 | 16.1 | 0.00 | 0.03 | 0.00 | 35 | 1013.6 |
| 20260508171554 | 21 | 253 | 3.2 | 11.3 | 0.00 | 0.03 | 0.00 | 34 | 1013.8 |
| 20260508171034 | 21 | 0 | 3.2 | 9.7 | 0.00 | 0.03 | 0.00 | 34 | 1013.8 |
| 20260508170536 | 21 | 238 | 0.0 | 12.9 | 0.00 | 0.03 | 0.00 | 37 | 1013.9 |
| 20260508170049 | 20 | 0 | 0.0 | 16.1 | 0.00 | 0.03 | 0.00 | 38 | 1013.9 |
| 20260508165535 | 20 | 190 | 3.2 | 16.1 | 0.00 | 0.03 | 0.00 | 37 | 1014.1 |
| 20260508165035 | 20 | 338 | 0.0 | 12.9 | 0.00 | 0.03 | 0.00 | 37 | 1014.1 |
| 20260508164552 | 20 | 0 | 1.6 | 16.1 | 0.00 | 0.03 | 0.00 | 37 | 1014.1 |
| 20260508164035 | 20 | 169 | 4.8 | 16.1 | 0.00 | 0.03 | 0.00 | 35 | 1014.2 |
| 20260508163537 | 20 | 136 | 3.2 | 12.9 | 0.00 | 0.03 | 0.00 | 37 | 1014.5 |
| 20260508163048 | 20 | 234 | 1.6 | 9.7 | 0.00 | 0.03 | 0.00 | 39 | 1014.5 |
| 20260508162535 | 19 | 91 | 3.2 | 9.7 | 0.00 | 0.03 | 0.00 | 38 | 1014.5 |
| 20260508162036 | 19 | 171 | 3.2 | 12.9 | 0.00 | 0.03 | 0.00 | 39 | 1014.7 |
| 20260508161547 | 20 | 269 | 3.2 | 12.9 | 0.00 | 0.03 | 0.00 | 37 | 1014.9 |
| 20260508161035 | 20 | 273 | 1.6 | 14.5 | 0.00 | 0.03 | 0.00 | 37 | 1014.9 |
| 20260508160536 | 20 | 126 | 3.2 | 14.5 | 0.00 | 0.03 | 0.00 | 36 | 1014.9 |
| 20260508160046 | 19 | 70 | 0.0 | 6.4 | 0.00 | 0.03 | 0.00 | 39 | 1015.0 |
| 20260508155534 | 19 | 32 | 1.6 | 11.3 | 0.00 | 0.03 | 0.00 | 35 | 1015.0 |
| 20260508155035 | 19 | 216 | 1.6 | 12.9 | 0.00 | 0.03 | 0.00 | 37 | 1015.2 |
| 20260508154554 | 19 | 202 | 4.8 | 12.9 | 0.00 | 0.03 | 0.00 | 40 | 1015.1 |
| 20260508154038 | 18 | 157 | 1.6 | 8.0 | 0.00 | 0.03 | 0.00 | 39 | 1015.0 |
| 20260508153538 | 18 | 158 | 1.6 | 8.0 | 0.00 | 0.03 | 0.00 | 40 | 1015.2 |
| 20260508153056 | 18 | 208 | 3.2 | 14.5 | 0.00 | 0.03 | 0.00 | 40 | 1015.2 |
| 20260508152538 | 18 | 278 | 3.2 | 14.5 | 0.00 | 0.03 | 0.00 | 39 | 1015.2 |
| 20260508152038 | 18 | 171 | 1.6 | 11.3 | 0.00 | 0.03 | 0.00 | 34 | 1015.3 |
| 20260508151549 | 19 | 260 | 3.2 | 11.3 | 0.00 | 0.03 | 0.00 | 37 | 1015.3 |
| 20260508151038 | 18 | 181 | 0.0 | 4.8 | 0.00 | 0.03 | 0.00 | 35 | 1015.4 |
| 20260508150537 | 18 | 257 | 0.0 | 3.2 | 0.00 | 0.03 | 0.00 | 37 | 1015.4 |
| 20260508150050 | 18 | 0 | 0.0 | 3.2 | 0.00 | 0.03 | 0.00 | 38 | 1015.4 |
| 20260508145539 | 18 | 0 | 0.0 | 3.2 | 0.00 | 0.03 | 0.00 | 39 | 1015.5 |
| 20260508145038 | 18 | 0 | 0.0 | 8.0 | 0.00 | 0.03 | 0.00 | 41 | 1015.6 |
| 20260508144553 | 17 | 0 | 0.0 | 12.9 | 0.00 | 0.03 | 0.00 | 41 | 1015.6 |
| 20260508144038 | 17 | 0 | 4.8 | 12.9 | 0.00 | 0.03 | 0.00 | 36 | 1015.7 |
| 20260508143539 | 17 | 0 | 1.6 | 6.4 | 0.00 | 0.03 | 0.00 | 38 | 1015.8 |
| 20260508143059 | 17 | 262 | 0.0 | 4.8 | 0.00 | 0.03 | 0.00 | 39 | 1015.7 |
| 20260508142538 | 17 | 0 | 0.0 | 3.2 | 0.00 | 0.03 | 0.00 | 42 | 1015.7 |
| 20260508142038 | 17 | 0 | 0.0 | 3.2 | 0.00 | 0.03 | 0.00 | 40 | 1015.7 |
| 20260508141604 | 17 | 26 | 0.0 | 3.2 | 0.00 | 0.03 | 0.00 | 43 | 1015.7 |
| 20260508141037 | 17 | 0 | 0.0 | 3.2 | 0.00 | 0.03 | 0.00 | 43 | 1015.8 |
| 20260508140538 | 16 | 0 | 0.0 | 4.8 | 0.00 | 0.03 | 0.00 | 50 | 1015.8 |
| 20260508140056 | 16 | 61 | 1.6 | 4.8 | 0.00 | 0.03 | 0.00 | 50 | 1015.8 |
| 20260508135538 | 16 | 62 | 1.6 | 8.0 | 0.00 | 0.03 | 0.00 | 51 | 1015.9 |
| 20260508135038 | 15 | 70 | 1.6 | 8.0 | 0.00 | 0.03 | 0.00 | 54 | 1015.9 |
| 20260508134551 | 15 | 81 | 3.2 | 8.0 | 0.00 | 0.03 | 0.00 | 53 | 1015.9 |
| 20260508134037 | 15 | 76 | 1.6 | 6.4 | 0.00 | 0.03 | 0.00 | 56 | 1016.0 |
| 20260508133539 | 15 | 64 | 1.6 | 4.8 | 0.00 | 0.03 | 0.00 | 60 | 1016.0 |
| 20260508133052 | 15 | 0 | 0.0 | 0.0 | 0.00 | 0.03 | 0.00 | 61 | 1016.1 |
| 20260508132538 | 14 | 0 | 0.0 | 0.0 | 0.00 | 0.03 | 0.00 | 60 | 1016.2 |
| 20260508132038 | 14 | 0 | 0.0 | 0.0 | 0.00 | 0.03 | 0.00 | 60 | 1016.1 |
| 20260508131603 | 13 | 0 | 0.0 | 0.0 | 0.00 | 0.03 | 0.00 | 63 | 1016.2 |
| 20260508131041 | 13 | 0 | 0.0 | 0.0 | 0.00 | 0.03 | 0.00 | 65 | 1016.1 |
| 20260508130542 | 13 | 0 | 0.0 | 0.0 | 0.00 | 0.03 | 0.00 | 72 | 1016.1 |
| 20260508130054 | 13 | 0 | 0.0 | 0.0 | 0.00 | 0.03 | 0.00 | 71 | 1016.1 |
| 20260508125538 | 12 | 0 | 0.0 | 0.0 | 0.00 | 0.03 | 0.00 | 73 | 1016.1 |
| 20260508125038 | 12 | 0 | 0.0 | 0.0 | 0.00 | 0.03 | 0.00 | 74 | 1016.2 |
| 20260508124552 | 12 | 0 | 0.0 | 0.0 | 0.00 | 0.03 | 0.00 | 79 | 1016.2 |
| 20260508124038 | 12 | 0 | 0.0 | 0.0 | 0.00 | 0.03 | 0.00 | 83 | 1016.2 |
| 20260508123538 | 11 | 0 | 0.0 | 0.0 | 0.00 | 0.03 | 0.00 | 86 | 1016.1 |
| 20260508123105 | 11 | 0 | 0.0 | 0.0 | 0.00 | 0.03 | 0.00 | 86 | 1016.1 |
| 20260508122538 | 10 | 0 | 0.0 | 4.8 | 0.00 | 0.03 | 0.00 | 87 | 1016.1 |
| 20260508122040 | 10 | 0 | 0.0 | 4.8 | 0.00 | 0.03 | 0.00 | 86 | 1016.0 |
| 20260508121600 | 10 | 73 | 3.2 | 4.8 | 0.00 | 0.03 | 0.00 | 87 | 1015.7 |
| 20260508121038 | 10 | 69 | 0.0 | 0.0 | 0.00 | 0.03 | 0.00 | 87 | 1015.8 |
| 20260508120538 | 10 | 0 | 0.0 | 0.0 | 0.00 | 0.03 | 0.00 | 87 | 1015.8 |
| 20260508120106 | 10 | 0 | 0.0 | 0.0 | 0.00 | 0.03 | 0.00 | 88 | 1015.9 |
| 20260508115538 | 10 | 0 | 0.0 | 0.0 | 0.00 | 0.03 | 0.00 | 89 | 1015.8 |
| 20260508115036 | 10 | 0 | 0.0 | 0.0 | 0.00 | 0.03 | 0.00 | 89 | 1015.7 |
| 20260508114559 | 9 | 0 | 0.0 | 0.0 | 0.00 | 0.03 | 0.00 | 92 | 1015.7 |
| 20260508114038 | 8 | 0 | 0.0 | 0.0 | 0.00 | 0.03 | 0.00 | 95 | 1015.7 |
| 20260508113538 | 8 | 0 | 0.0 | 0.0 | 0.00 | 0.03 | 0.00 | 95 | 1015.7 |
| 20260508113103 | 8 | 0 | 0.0 | 0.0 | 0.00 | 0.03 | 0.00 | 95 | 1015.7 |
| 20260508112537 | 7 | 0 | 0.0 | 0.0 | 0.00 | 0.03 | 0.00 | 96 | 1015.6 |
| 20260508112037 | 7 | 0 | 0.0 | 0.0 | 0.00 | 0.03 | 0.00 | 97 | 1015.6 |
| 20260508111550 | 7 | 0 | 0.0 | 0.0 | 0.00 | 0.03 | 0.00 | 97 | 1015.4 |
| 20260508111039 | 6 | 0 | 0.0 | 0.0 | 0.00 | 0.03 | 0.00 | 97 | 1015.4 |
| 20260508110538 | 6 | 0 | 0.0 | 0.0 | 0.00 | 0.03 | 0.00 | 97 | 1015.2 |
| 20260508110051 | 6 | 0 | 0.0 | 0.0 | 0.00 | 0.03 | 0.00 | 97 | 1015.1 |
| 20260508105538 | 6 | 0 | 0.0 | 0.0 | 0.00 | 0.03 | 0.00 | 97 | 1015.0 |
| 20260508105039 | 5 | 0 | 0.0 | 0.0 | 0.00 | 0.03 | 0.00 | 96 | 1015.0 |
| 20260508104548 | 5 | 0 | 0.0 | 0.0 | 0.00 | 0.03 | 0.00 | 95 | 1014.9 |
| 20260508104038 | 5 | 0 | 0.0 | 0.0 | 0.00 | 0.03 | 0.00 | 94 | 1014.7 |
| 20260508103538 | 5 | 0 | 0.0 | 0.0 | 0.00 | 0.03 | 0.00 | 94 | 1014.6 |
| 20260508103059 | 5 | 0 | 0.0 | 0.0 | 0.00 | 0.03 | 0.00 | 94 | 1014.5 |
| 20260508102538 | 5 | 0 | 0.0 | 0.0 | 0.00 | 0.03 | 0.00 | 94 | 1014.3 |
| 20260508102038 | 5 | 0 | 0.0 | 0.0 | 0.00 | 0.03 | 0.00 | 94 | 1014.2 |
| 20260508101554 | 5 | 0 | 0.0 | 0.0 | 0.00 | 0.03 | 0.00 | 94 | 1014.2 |
| 20260508101038 | 5 | 0 | 0.0 | 0.0 | 0.00 | 0.03 | 0.00 | 94 | 1014.1 |
| 20260508100537 | 5 | 0 | 0.0 | 0.0 | 0.00 | 0.03 | 0.00 | 94 | 1014.0 |
| 20260508100048 | 5 | 0 | 0.0 | 0.0 | 0.00 | 0.03 | 0.00 | 94 | 1013.9 |
| 20260508095541 | 5 | 0 | 0.0 | 0.0 | 0.00 | 0.03 | 0.00 | 94 | 1013.8 |
| 20260508095038 | 6 | 0 | 0.0 | 0.0 | 0.00 | 0.03 | 0.00 | 94 | 1013.8 |
| 20260508094547 | 6 | 0 | 0.0 | 0.0 | 0.00 | 0.03 | 0.00 | 94 | 1013.8 |
| 20260508094038 | 6 | 0 | 0.0 | 0.0 | 0.00 | 0.03 | 0.00 | 94 | 1013.8 |